Temperature
7 7 7 7 7 7 7 7 7 7 7 7 7 7 7 7 7 7 7 6 6 6 6 5 5 5 5 5 4 4 3 3 2 3 3 3 3 3 3 3 3 3 3
7 7 7 7 7 7 7 7 7 7 6 6 6 6 6 6 6 6 6 6 6 5 5 5 5 4 4 4 4 3 3 2 2 2 3 3 3 3 2 2 3 2 2
6 6 6 6 6 6 6 6 6 6 6 6 6 6 6 6 6 6 6 5 5 5 4 4 4 4 4 3 3 2 2 2 2 2 2 2 2 2 2 2 2 2 2
5 5 6 6 6 6 6 6 6 6 5 5 5 5 5 5 5 5 5 5 5 4 4 4 3 3 3 3 2 2 2 2 2 1 1 1 2 2 2 2 2 2 1
5 5 5 5 5 5 5 5 5 5 5 5 5 5 5 5 5 4 4 4 4 4 4 3 3 3 2 2 2 2 2 2 1 1 1 1 1 1 1 1 1 1 1
4 4 4 4 4 4 4 4 4 4 4 4 4 4 4 4 4 4 4 3 3 3 3 3 3 2 2 2 2 2 1 1 1 1 1 0 0 0 0 0 -0 -0 0
3 3 3 4 4 4 4 4 4 4 4 4 4 4 4 4 3 3 3 3 3 3 2 2 2 2 2 2 2 1 1 1 1 0 0 0 -0 -0 -0 -0 -0 -1 -1
2 3 3 3 3 3 3 3 3 3 3 3 3 3 3 3 2 2 2 2 2 2 2 2 1 1 1 1 1 1 1 1 0 0 -0 -0 -0 -1 -1 -1 -1 -1 -1
2 2 2 2 2 2 2 2 2 2 2 2 2 2 2 2 2 2 1 1 1 1 1 1 1 1 1 1 0 0 0 0 0 -0 -0 -1 -1 -1 -1 -1 -1 -1 -1
1 1 1 1 2 2 2 2 1 2 1 1 1 1 1 1 1 1 1 1 1 1 1 1 0 0 0 -0 -0 -0 -0 -0 -1 -1 -1 -1 -1 -1 -1 -2 -2 -2 -2
0 0 1 1 1 1 1 1 1 1 1 1 1 1 1 0 0 0 0 0 0 0 0 0 -0 -0 -0 -0 -1 -1 -1 -1 -1 -1 -1 -1 -1 -1 -1 -2 -2 -2 -3
-0 -0 -0 0 0 0 -0 -0 -0 -0 -0 -0 -0 -0 -0 -0 -0 -0 -0 -0 -0 -0 -0 -1 -1 -1 -1 -1 -1 -1 -1 -2 -2 -2 -2 -2 -2 -2 -2 -2 -2 -2 -3
-1 -1 -1 -1 -1 -1 -1 -1 -1 -1 -1 -1 -1 -1 -1 -1 -1 -1 -1 -1 -1 -1 -1 -1 -1 -1 -1 -1 -1 -1 -2 -2 -2 -2 -2 -2 -2 -2 -2 -2 -2 -2 -3
-1 -1 -1 -1 -1 -1 -1 -1 -1 -1 -1 -1 -2 -1 -1 -1 -1 -1 -1 -1 -1 -1 -2 -2 -2 -2 -2 -2 -2 -2 -2 -2 -2 -3 -3 -3 -3 -3 -3 -3 -3 -3 -3
-2 -2 -2 -2 -2 -2 -2 -2 -2 -2 -2 -2 -2 -2 -2 -2 -2 -2 -2 -2 -2 -2 -2 -2 -2 -2 -2 -2 -2 -2 -2 -3 -3 -3 -3 -3 -3 -3 -3 -3 -3 -3 -3
-3 -3 -3 -3 -3 -3 -3 -3 -3 -3 -3 -3 -3 -3 -3 -3 -3 -3 -3 -3 -3 -3 -3 -3 -3 -3 -3 -3 -3 -3 -3 -3 -3 -3 -3 -3 -3 -4 -4 -4 -4 -4 -4
-3 -3 -3 -3 -3 -3 -3 -3 -3 -3 -3 -3 -3 -3 -3 -3 -3 -3 -3 -3 -3 -3 -3 -3 -3 -3 -3 -3 -3 -3 -3 -3 -4 -4 -4 -4 -4 -4 -4 -4 -4 -4 -5
-4 -3 -3 -3 -4 -4 -4 -4 -4 -4 -4 -4 -4 -4 -4 -4 -4 -4 -4 -4 -3 -4 -4 -4 -4 -4 -4 -4 -4 -4 -4 -4 -4 -4 -4 -4 -4 -5 -5 -5 -5 -5 -5
-4 -4 -4 -4 -4 -4 -4 -4 -4 -4 -4 -4 -4 -4 -4 -4 -4 -4 -4 -4 -4 -4 -4 -4 -4 -4 -4 -4 -4 -4 -4 -4 -5 -5 -5 -5 -5 -5 -5 -5 -5 -6 -5
-5 -4 -4 -4 -4 -4 -5 -5 -5 -5 -5 -5 -5 -4 -4 -4 -4 -4 -4 -4 -5 -5 -5 -5 -5 -5 -5 -5 -5 -5 -5 -5 -5 -5 -5 -5 -5 -5 -5 -5 -6 -6 -6
-5 -5 -5 -5 -5 -5 -5 -5 -5 -5 -5 -5 -5 -5 -5 -5 -5 -5 -5 -5 -5 -5 -5 -5 -5 -5 -5 -5 -5 -5 -5 -5 -5 -5 -5 -5 -5 -6 -6 -6 -6 -6 -6
-5 -5 -5 -5 -5 -5 -5 -5 -6 -6 -6 -5 -5 -6 -6 -5 -5 -5 -5 -6 -6 -6 -6 -6 -5 -5 -5 -5 -5 -5 -5 -5 -5 -5 -5 -6 -6 -6 -6 -6 -6 -6 -6
-6 -6 -6 -6 -6 -6 -6 -6 -6 -6 -6 -6 -6 -6 -6 -6 -6 -6 -6 -6 -6 -6 -6 -6 -6 -6 -6 -6 -6 -6 -6 -6 -6 -6 -6 -6 -6 -6 -6 -6 -6 -6 -6
-6 -6 -6 -6 -6 -6 -6 -6 -6 -6 -6 -6 -6 -6 -6 -6 -6 -6 -6 -6 -6 -6 -6 -6 -6 -6 -6 -6 -6 -6 -6 -6 -6 -6 -6 -6 -6 -6 -6 -6 -6 -6 -6
-7 -7 -7 -7 -7 -7 -7 -7 -7 -7 -7 -7 -7 -7 -7 -7 -7 -7 -7 -6 -6 -6 -6 -6 -6 -6 -6 -6 -6 -6 -6 -6 -6 -6 -6 -6 -6 -6 -6 -6 -6 -6 -6
-7 -7 -7 -7 -7 -7 -7 -7 -7 -7 -7 -7 -7 -7 -7 -7 -7 -7 -7 -7 -7 -6 -6 -6 -6 -6 -6 -6 -6 -6 -6 -6 -6 -6 -6 -6 -6 -6 -6 -6 -6 -6 -6
Wind_Speed
4 4 4 4 4 4 4 4 3 3 3 3 2 2 3 2 2 2 1 1 1 0 0 1 2 2 1 2 2 2 2 2 6 7 5 5 5 7 9 11 12 12 12
4 4 4 4 4 4 4 3 3 3 3 3 2 2 2 2 2 3 2 1 1 1 1 1 2 2 2 2 2 2 3 3 4 7 7 5 6 7 7 8 10 11 11
4 4 4 3 3 3 3 3 3 3 2 2 2 2 2 2 2 3 2 2 2 2 2 2 2 2 2 2 2 3 3 3 3 5 7 6 5 5 7 7 8 8 10
4 4 4 3 3 2 3 3 3 3 3 2 2 2 2 2 2 2 2 2 2 2 2 2 3 2 3 3 3 3 3 3 3 4 5 6 6 5 5 6 8 6 7
4 4 3 2 3 3 2 2 2 2 2 2 2 1 1 1 2 2 2 2 2 2 2 2 2 3 3 3 3 3 3 3 3 4 5 6 6 6 6 5 7 9 7
4 3 3 3 3 3 2 2 2 2 1 1 1 1 1 2 2 3 2 2 1 2 3 3 3 3 3 4 5 5 5 4 4 4 5 6 6 6 6 6 6 7 7
3 3 2 3 3 2 2 2 2 1 1 1 0 0 1 2 3 2 2 1 2 3 3 3 3 3 4 3 4 5 5 6 6 4 5 6 6 6 6 7 6 7 8
3 2 2 2 2 2 2 2 1 1 1 1 1 1 1 2 3 3 2 1 2 3 3 3 4 4 3 3 3 3 4 5 5 4 4 6 6 6 5 6 7 7 7
2 2 2 2 2 2 1 1 1 1 1 1 1 1 2 3 4 3 2 1 2 3 3 3 3 3 5 5 3 4 5 5 6 7 7 8 9 10 8 4 5 6 7
1 1 2 2 2 2 1 1 1 1 1 1 2 2 2 3 4 4 3 2 2 2 2 2 3 4 5 4 3 3 5 5 5 5 6 7 7 7 7 4 4 5 6
1 2 2 2 2 1 1 1 0 1 1 1 2 2 3 3 4 5 4 2 2 3 3 2 3 5 5 5 4 3 5 5 4 4 4 5 5 4 5 5 4 4 5
2 2 2 2 2 1 1 1 1 1 1 1 2 3 3 3 3 4 5 5 4 3 3 3 3 5 6 6 5 5 6 4 2 3 4 5 5 5 5 6 7 7 7
2 2 2 2 2 1 1 1 0 0 0 1 2 2 3 2 3 4 5 5 5 3 3 4 5 5 5 4 5 6 4 2 2 3 4 4 4 5 5 5 6 6 7
2 1 1 1 1 1 1 0 0 1 1 1 2 2 3 3 3 2 2 2 3 3 2 3 4 4 3 3 4 4 2 2 2 3 4 4 4 4 4 4 4 5 5
2 1 1 1 1 1 1 1 1 2 2 2 2 2 3 4 4 5 4 2 2 2 2 1 1 2 2 2 2 3 2 3 3 3 3 4 4 4 5 4 4 4 4
2 1 0 0 0 0 1 2 3 2 4 4 4 4 4 5 6 7 6 5 4 3 2 1 2 2 3 3 3 3 3 3 3 3 4 4 4 5 5 5 4 4 5
2 1 1 1 0 1 1 1 2 4 4 4 5 5 5 6 6 6 5 4 3 2 1 2 2 3 3 3 3 3 3 4 3 3 4 4 4 4 5 5 5 5 5
1 1 1 1 1 1 1 1 1 2 3 3 4 6 6 7 7 6 5 3 2 2 1 2 3 3 3 3 3 3 4 4 3 3 4 4 4 4 4 5 5 5 6
1 1 1 1 1 1 1 1 1 2 2 3 3 4 6 6 6 6 5 2 2 2 2 3 3 3 3 3 3 3 3 4 4 3 3 4 3 4 4 5 5 7 6
1 1 1 1 1 0 0 0 1 1 2 2 3 4 4 4 3 4 3 2 2 3 3 3 3 3 3 3 3 3 3 4 4 3 4 4 3 4 4 5 5 5 5
1 1 1 0 0 0 0 1 1 1 2 2 3 4 5 3 3 3 3 3 3 3 3 3 3 3 3 3 3 4 4 4 4 4 3 4 4 4 4 4 5 5 5
1 1 1 1 1 1 1 1 1 1 2 3 3 4 6 3 3 3 3 3 3 2 2 3 3 3 3 3 4 4 4 4 4 4 4 4 4 4 4 4 4 4 5
1 1 1 1 1 1 2 1 1 2 2 3 3 3 3 3 3 3 3 3 3 3 3 3 3 3 4 4 5 4 4 5 5 4 4 4 4 4 4 4 5 5 5
2 2 2 1 1 1 1 2 2 2 2 3 3 3 3 3 3 4 4 3 4 4 4 4 4 5 6 6 5 6 6 7 6 6 5 4 4 4 3 4 4 5 5
2 2 2 2 2 2 2 2 2 2 3 3 3 3 3 3 4 4 4 3 4 4 5 5 5 5 6 7 7 7 8 9 8 6 4 3 3 3 4 4 4 4 4
2 2 2 2 2 2 2 3 3 3 3 3 3 3 3 4 4 4 4 3 4 4 5 5 6 7 8 7 8 8 9 8 8 7 4 2 2 2 3 3 3 3 3
Wind_Direction
141 144 143 153 156 152 156 163 160 153 151 158 158 159 164 158 142 139 159 161 164 292 311 250 270 278 278 287 288 286 279 269 280 294 295 308 313 316 323 322 322 321 318
140 132 135 142 148 150 151 152 146 150 152 155 149 158 175 173 163 166 186 195 198 230 254 260 277 293 292 293 294 290 283 276 275 292 302 308 308 314 316 317 324 322 316
123 120 120 126 140 149 154 147 144 146 145 143 147 170 193 199 191 189 190 205 213 227 237 245 263 267 282 289 288 287 287 296 290 288 297 305 308 316 318 316 316 317 318
119 119 119 125 133 142 143 145 147 151 159 166 172 184 200 209 202 197 195 207 218 240 247 249 256 248 257 275 283 281 287 302 305 298 300 306 311 313 317 321 321 319 314
114 115 117 107 99 99 107 119 123 132 160 169 164 174 194 214 210 197 202 210 226 257 276 270 269 270 272 275 283 279 279 289 298 300 301 307 313 323 321 317 313 315 306
115 117 116 109 101 96 100 103 99 94 96 115 158 195 242 266 250 225 218 221 240 251 265 277 284 282 282 290 295 289 285 285 288 289 292 297 301 303 307 310 313 317 311
110 111 116 115 110 105 101 89 79 65 61 37 2 285 276 275 274 254 244 228 242 251 254 265 283 290 292 283 295 307 311 307 294 278 282 286 292 295 301 303 303 302 295
108 106 103 109 112 106 101 93 68 47 30 337 328 320 292 287 286 280 270 244 255 259 257 257 264 276 279 281 289 300 300 302 304 293 270 277 285 292 288 290 291 297 291
110 117 117 116 110 103 95 72 45 41 8 334 314 322 309 294 288 290 301 262 262 265 263 266 267 265 282 292 299 300 306 308 314 312 305 304 307 310 315 315 313 316 308
116 118 111 114 114 106 91 34 13 25 339 326 318 313 298 286 287 280 282 256 260 270 275 279 280 280 288 296 290 290 298 302 309 319 325 324 322 317 320 314 298 303 305
108 104 88 86 97 104 86 43 38 26 8 335 325 321 310 292 287 282 273 255 250 265 272 279 283 292 294 300 303 284 288 301 302 308 314 316 320 322 324 322 305 284 287
96 98 82 73 71 65 82 56 48 42 356 326 320 316 308 297 292 289 285 279 277 263 270 276 285 297 302 307 311 309 312 324 318 316 315 316 318 319 318 316 310 298 279
89 88 81 70 60 60 86 96 72 55 283 294 295 299 305 305 300 297 291 292 287 285 275 281 291 302 312 315 316 318 328 327 316 312 309 306 303 302 310 315 313 311 303
100 96 96 84 52 29 9 339 281 271 280 296 309 308 307 305 298 296 297 307 309 309 310 302 306 313 327 322 323 329 330 307 307 295 298 299 304 310 313 314 315 323 321
121 122 109 84 77 19 354 325 303 276 265 281 281 279 291 296 299 307 306 293 291 278 298 303 323 321 323 323 324 322 321 324 319 306 303 308 313 317 317 320 313 315 311
137 143 177 196 249 339 353 346 348 327 327 317 307 304 301 306 312 313 304 297 298 293 293 285 291 292 294 300 306 310 309 311 308 305 305 307 312 315 317 321 318 313 310
160 178 193 220 258 287 314 330 331 339 345 342 340 338 333 326 323 316 314 306 296 301 300 287 286 287 290 293 294 295 299 304 304 301 302 303 306 310 314 318 319 317 314
151 185 197 205 228 248 260 281 296 312 326 332 342 346 341 337 333 330 320 322 315 330 304 291 290 288 291 292 292 294 297 302 303 301 301 302 303 305 308 308 309 309 310
161 189 201 210 226 233 246 263 301 310 312 316 325 334 343 341 342 344 342 333 307 304 300 293 291 290 291 292 291 291 291 295 296 297 299 298 298 300 300 301 302 307 309
201 239 236 200 209 211 267 303 314 317 317 319 320 321 326 332 332 332 335 323 302 295 296 296 295 289 288 288 290 290 291 290 291 291 292 294 293 292 293 297 299 303 305
202 235 267 243 177 217 264 274 284 294 303 309 308 308 318 323 319 314 313 312 303 296 293 294 293 293 293 291 289 287 287 289 288 286 284 285 288 290 290 292 295 299 302
199 201 196 202 221 249 269 268 278 289 301 306 311 316 324 328 319 311 308 307 306 302 300 291 288 287 285 285 284 283 283 284 285 283 280 282 285 287 291 295 299 302 303
189 197 214 224 224 259 291 288 281 284 291 297 302 309 313 314 311 307 305 305 308 311 310 303 294 295 294 287 281 278 278 278 279 277 278 280 284 287 290 291 295 300 300
201 210 215 225 232 235 251 268 271 276 281 287 291 295 300 303 303 303 304 306 309 311 310 304 295 290 290 294 295 290 282 280 279 273 265 266 274 283 286 288 290 291 294
204 207 212 219 229 241 255 266 271 276 281 285 288 291 295 297 299 302 304 305 306 310 308 304 299 296 294 292 293 294 290 287 284 279 267 262 266 271 278 283 288 294 299
209 214 220 222 228 238 249 260 267 272 276 281 283 284 288 292 294 295 297 300 305 306 306 305 299 297 298 300 295 293 294 293 289 285 270 257 264 278 281 287 293 298 301
Height
1506 1507 1509 1512 1513 1515 1516 1518 1519 1520 1521 1522 1523 1524 1524 1525 1525 1525 1525 1525 1524 1524 1523 1523 1522 1521 1520 1519 1518 1516 1515 1513 1509 1505 1504 1502 1500 1497 1494 1491 1488 1484 1481
1504 1505 1507 1509 1511 1512 1514 1515 1516 1517 1518 1519 1520 1520 1521 1522 1522 1522 1522 1521 1521 1520 1520 1519 1518 1517 1516 1515 1513 1512 1510 1509 1507 1502 1499 1498 1496 1493 1490 1487 1484 1480 1477
1502 1503 1505 1507 1508 1510 1511 1512 1513 1514 1515 1516 1517 1517 1518 1518 1518 1518 1518 1518 1517 1516 1516 1515 1514 1513 1512 1511 1509 1508 1507 1505 1503 1500 1496 1494 1491 1489 1486 1483 1480 1476 1473
1500 1501 1503 1505 1506 1507 1509 1510 1511 1511 1512 1513 1513 1514 1515 1515 1515 1514 1514 1514 1513 1513 1512 1511 1511 1510 1508 1507 1506 1504 1503 1501 1499 1497 1494 1491 1488 1485 1483 1479 1474 1471 1468
1498 1499 1501 1502 1504 1505 1506 1507 1508 1509 1509 1510 1510 1511 1511 1511 1511 1511 1510 1510 1509 1509 1508 1508 1507 1506 1505 1504 1502 1501 1499 1498 1495 1493 1490 1487 1484 1482 1479 1475 1471 1467 1464
1495 1497 1499 1500 1501 1502 1503 1504 1505 1506 1506 1507 1507 1507 1507 1507 1507 1507 1507 1506 1505 1505 1504 1504 1503 1502 1501 1500 1499 1498 1496 1495 1492 1490 1487 1484 1481 1479 1476 1472 1469 1464 1459
1494 1495 1496 1498 1499 1500 1501 1501 1502 1502 1502 1503 1503 1503 1503 1503 1503 1503 1503 1502 1502 1501 1500 1500 1499 1498 1497 1496 1495 1493 1492 1491 1489 1487 1484 1481 1478 1476 1473 1469 1466 1462 1457
1491 1493 1494 1495 1496 1497 1498 1498 1499 1499 1499 1499 1499 1499 1499 1499 1499 1499 1498 1498 1498 1497 1496 1496 1495 1494 1493 1492 1491 1489 1488 1486 1485 1483 1481 1478 1475 1473 1470 1467 1463 1459 1455
1489 1490 1491 1492 1493 1494 1495 1495 1496 1496 1496 1496 1496 1495 1495 1495 1495 1495 1495 1494 1493 1493 1492 1492 1491 1490 1489 1488 1487 1485 1483 1482 1481 1479 1477 1474 1472 1469 1467 1463 1459 1456 1450
1487 1489 1489 1490 1491 1492 1492 1493 1493 1493 1493 1493 1492 1492 1492 1492 1492 1492 1491 1490 1490 1489 1488 1488 1487 1486 1486 1485 1483 1481 1479 1477 1476 1474 1472 1470 1468 1465 1463 1460 1457 1453 1448
1486 1486 1487 1488 1489 1489 1490 1490 1490 1490 1490 1490 1489 1489 1489 1488 1488 1488 1488 1487 1486 1485 1484 1483 1483 1483 1482 1481 1479 1478 1476 1474 1472 1470 1468 1466 1464 1462 1459 1456 1454 1450 1446
1484 1484 1485 1486 1487 1487 1487 1487 1487 1487 1487 1487 1486 1486 1485 1485 1485 1484 1484 1483 1482 1481 1480 1480 1479 1479 1478 1477 1475 1474 1472 1471 1469 1467 1465 1462 1460 1458 1455 1453 1450 1447 1444
1482 1482 1483 1484 1484 1485 1485 1485 1485 1485 1484 1484 1483 1482 1482 1482 1481 1481 1480 1479 1479 1478 1477 1476 1476 1475 1474 1473 1471 1470 1469 1467 1465 1463 1461 1459 1457 1454 1452 1449 1446 1443 1441
1480 1480 1481 1482 1482 1482 1483 1483 1482 1482 1482 1481 1480 1479 1479 1478 1477 1477 1476 1476 1475 1474 1473 1473 1472 1471 1470 1469 1468 1466 1465 1463 1462 1460 1458 1456 1454 1451 1448 1445 1442 1439 1436
1478 1478 1479 1479 1480 1480 1480 1480 1480 1480 1479 1479 1478 1477 1475 1474 1474 1473 1473 1472 1471 1471 1470 1469 1468 1467 1466 1465 1464 1463 1461 1460 1458 1456 1454 1452 1450 1448 1445 1442 1440 1436 1433
1476 1476 1477 1477 1477 1477 1477 1478 1477 1477 1477 1476 1475 1474 1472 1472 1470 1470 1469 1469 1468 1467 1467 1465 1464 1463 1462 1461 1460 1459 1458 1456 1455 1453 1451 1449 1447 1444 1442 1439 1437 1434 1431
1474 1474 1474 1475 1475 1475 1475 1475 1474 1474 1474 1473 1472 1471 1470 1469 1468 1467 1466 1465 1465 1464 1463 1462 1461 1460 1459 1458 1457 1455 1454 1453 1451 1449 1447 1446 1443 1441 1439 1436 1434 1431 1429
1472 1472 1472 1473 1473 1473 1473 1473 1472 1471 1470 1469 1469 1468 1467 1466 1465 1464 1463 1462 1461 1460 1460 1459 1457 1457 1456 1454 1453 1452 1451 1449 1448 1446 1444 1442 1441 1438 1436 1434 1431 1429 1426
1469 1470 1470 1471 1471 1471 1471 1470 1469 1469 1468 1467 1466 1465 1464 1463 1462 1461 1460 1459 1458 1457 1456 1455 1454 1453 1452 1451 1450 1449 1447 1446 1444 1443 1441 1440 1438 1436 1433 1431 1429 1427 1424
1467 1467 1468 1468 1468 1468 1468 1468 1467 1466 1466 1465 1464 1463 1461 1460 1459 1458 1457 1456 1455 1454 1453 1452 1450 1450 1449 1448 1446 1445 1444 1443 1441 1440 1438 1437 1435 1433 1431 1429 1427 1425 1422
1465 1465 1465 1466 1466 1466 1466 1465 1465 1464 1463 1462 1461 1460 1459 1458 1456 1455 1454 1453 1452 1451 1450 1449 1447 1446 1445 1444 1443 1442 1441 1440 1438 1437 1435 1434 1432 1430 1428 1426 1424 1422 1420
1462 1463 1463 1463 1463 1463 1463 1463 1462 1462 1461 1460 1458 1458 1456 1455 1454 1453 1452 1451 1449 1448 1447 1446 1445 1444 1443 1441 1440 1439 1438 1437 1435 1434 1432 1431 1429 1428 1426 1424 1422 1420 1418
1460 1460 1460 1461 1461 1461 1461 1460 1460 1459 1458 1457 1456 1455 1454 1453 1452 1450 1449 1448 1447 1446 1445 1443 1442 1441 1440 1439 1438 1436 1435 1434 1433 1431 1430 1428 1427 1425 1424 1422 1420 1418 1416
1457 1458 1458 1458 1458 1458 1458 1457 1457 1456 1455 1454 1453 1452 1451 1450 1449 1448 1447 1445 1444 1443 1442 1441 1439 1438 1437 1436 1435 1433 1432 1431 1430 1428 1427 1426 1424 1423 1422 1420 1418 1417 1415
1454 1455 1455 1455 1455 1455 1454 1454 1454 1453 1452 1451 1450 1449 1448 1447 1446 1445 1444 1442 1441 1440 1439 1438 1436 1435 1434 1433 1431 1430 1429 1428 1426 1425 1424 1423 1422 1421 1419 1418 1417 1415 1414
1451 1452 1452 1452 1452 1452 1451 1451 1450 1450 1449 1448 1447 1446 1445 1444 1443 1442 1441 1440 1438 1437 1436 1435 1434 1432 1431 1430 1428 1427 1426 1425 1423 1422 1421 1420 1420 1419 1417 1416 1415 1414 1412